This demonstration page uses our WeatherBlox Daily Observations layout. Learn more.

Left ArrowRight Arrow

40.97296, -117.73568

Hourly Observations for January 25, 2022

Temp ( °F °C ) Dew Point ( °F °C ) Humidity (%) Winds ( mph kmh ) Pressure ( in mb ) Visibility ( mi km ) Precip ( " mm )
12:56 am 00:56 Clear 32 0 23 -5 69 69 NNW 8 13 30.16 1022 10 16 0.00 0.00
1:56 am 01:56 Clear 32 0 22 -5.6 66 66 NNW 12 19 30.18 1022 10 16 0.00 0.00
2:56 am 02:56 Clear 30 -1.1 21 -6.1 69 69 NNW 13 20 30.19 1023 10 16 0.00 0.00
3:56 am 03:56 Clear 25 -3.9 19 -7.2 78 78 NW 8 13 30.22 1023 10 16 0.00 0.00
4:56 am 04:56 Clear 26 -3.3 19 -7.2 75 75 WNW 14 22 30.25 1024 10 16 0.00 0.00
5:56 am 05:56 Clear 31 -0.6 19 -7.2 61 61 ENE 9 15 30.29 1026 10 16 0.00 0.00
6:56 am 06:56 Clear 26 -3.3 18 -7.8 71 71 NNW 7 11 30.34 1027 10 16 0.00 0.00
7:56 am 07:56 Sunny 29 -1.7 19 -7.2 66 66 N 7 11 30.35 1028 10 16 0.00 0.00
8:56 am 08:56 Sunny 34 1.1 21 -6.1 59 59 NNE 9 15 30.36 1028 10 16 0.00 0.00
9:56 am 09:56 Sunny 36 2.2 22 -5.6 57 57 NNE 7 11 30.37 1029 10 16 0.00 0.00
10:56 am 10:56 Sunny 38 3.3 22 -5.6 52 52 E 7 11 30.36 1028 10 16 0.00 0.00
11:56 am 11:56 Sunny 39 3.9 22 -5.6 50 50 SE 3 6 30.31 1026 10 16 0.00 0.00
12:56 pm 12:56 Sunny 42 5.6 22 -5.6 45 45 ENE 7 11 30.29 1026 10 16 0.00 0.00
1:56 pm 13:56 Sunny 43 6.1 21 -6.1 42 42 NE 7 11 30.27 1025 10 16 0.00 0.00
2:56 pm 14:56 Sunny 44 6.7 22 -5.6 41 41 VRB 7 11 30.28 1025 10 16 0.00 0.00
3:56 pm 15:56 Sunny 43 6.1 21 -6.1 42 42 NNE 7 11 30.29 1026 10 16 0.00 0.00
4:56 pm 16:56 Sunny 39 3.9 20 -6.7 46 46 N 5 7 30.29 1026 10 16 0.00 0.00
5:56 pm 17:56 Clear 33 0.6 19 -7.2 56 56 N 5 7 30.29 1026 10 16 0.00 0.00
6:56 pm 18:56 Clear 28 -2.2 19 -7.2 69 69 N 3 6 30.34 1027 10 16 0.00 0.00
7:56 pm 19:56 Clear 27 -2.8 19 -7.2 72 72 E 5 7 30.33 1027 10 16 0.00 0.00
8:56 pm 20:56 Clear 23 -5 18 -7.8 81 81 SSE 7 11 30.33 1027 10 16 0.00 0.00
9:56 pm 21:56 Clear 22 -5.6 17 -8.3 82 82 E 3 6 30.34 1027 10 16 0.00 0.00
10:56 pm 22:56 Clear 24 -4.4 18 -7.8 77 77 Calm 30.33 1027 10 16 0.00 0.00
11:56 pm 23:56 Clear 22 -5.6 18 -7.8 85 85 ESE 5 7 30.32 1027 10 16 0.00 0.00

Powered by AerisWeather